Location: Tierz
(42.1336°N, 0.3549°W)
Time: 15:46:46
(UTC+00:00)

CZ-4 R/B - Pass Details

Date: 29 October 2020
Orbit: 531 x 598 km, 97.7° (Epoch: 25 November)

Event Time Altitude Azimuth Distance (km) Brightness Sun altitude
Rises 17:23:58 0° 122° (ESE) 2,696 4.4 -5.4°
Reaches altitude 10° 17:26:56 10° 97° (E) 1,799 3.4 -5.9°
Maximum altitude 17:28:58 14° 65° (ENE) 1,557 3.0 -6.3°
Drops below altitude 10° 17:31:00 10° 33° (NNE) 1,795 3.5 -6.6°
Sets 17:33:57 0° 8° (N) 2,687 4.6 -7.2°
